[[{"header":{"parameterUnit":"m.s-1","parameterCategory":2,"la1":30.2992,"la2":30.254,"lo1":-89.0895,"lo2":-89.0443,"dy":0.0025,"dx":0.0025,"nx":19,"ny":19,"refTime":"2026-04-03T21:00:00:Z","depth":"0","parameterNumber":2,"parameterNumberName":"U-component_of_CURRENTS"},"data":[0,0,0,0.0474,0.0473,0.0396,0.0396,0.0375,0.0375,0,0,0,0,0,0,0,0,0,0,0,0.0501,0.0501,0.0474,0.0472,0.0396,0.0396,0.0375,0.0375,0,0,0,0,0,0,0,0,0,0,0,0.0501,0.0501,0.05,0.0472,0.0396,0.0396,0.0375,0.0411,0,0,0,0,0,0,0,0,0,0,0.0475,0.0499,0.0501,0.05,0.0472,0.0396,0.0396,0.0412,0.0409,0.0434,0,0.0424,0,0.0404,0.0376,0.0376,0,0,0,0.0465,0.0501,0.0476,0.05,0.0471,0.0397,0.0428,0.041,0.0407,0.043,0.0424,0.0422,0.0404,0.0376,0.0376,0.0459,0.046,0,0,0.0469,0.0493,0.0478,0.0474,0.0456,0.0431,0.0426,0.0407,0.0411,0.0423,0.0421,0.0404,0.0376,0.0376,0.0459,0.046,0,0,0,0.0486,0.0496,0.0469,0.0475,0.0458,0.0429,0.0423,0.0412,0.0401,0.0421,0.0403,0.0376,0.0377,0.0458,0.0459,0.0545,0,0,0,0.0488,0.0506,0.0471,0.0485,0.0458,0.0425,0.0429,0.0402,0.0399,0.0403,0.0376,0.0377,0.0457,0.0458,0.0541,0.0598,0,0,0,0.0504,0.0508,0.0499,0.0486,0.0456,0.0425,0.0412,0.04,0.039,0.0376,0.0377,0.0456,0.0458,0.0537,0.0591,0.0698,0,0,0,0.053,0.0519,0.05,0.0488,0.0456,0.0437,0.0412,0.0399,0.0391,0.0376,0.0457,0.0459,0.0536,0.0587,0.0692,0.0822,0.0857,0,0,0.0529,0.052,0.0513,0.0493,0.0486,0.0447,0.0471,0.0448,0.0433,0.0465,0.0466,0.0543,0.059,0.0697,0.0931,0.0963,0,0,0,0.0521,0.0518,0.0511,0.0504,0.0486,0.0511,0.0477,0.0492,0.0528,0.0437,0.0557,0.0585,0.0649,0.0716,0.0742,0.0815,0.0468,0.0467,0.0467,0.055,0.0538,0.0544,0.0537,0.0545,0.0559,0.0598,0.0623,0.0579,0.0626,0.0665,0.082,0.0892,0.0912,0.0986,0.0666,0.0666,0.0667,0.0667,0.0561,0.0561,0.0585,0.0584,0.0625,0.0655,0.073,0.0736,0.0844,0.0767,0.0825,0.0816,0.0946,0.1014,0.0673,0.0672,0.0671,0.067,0.067,0.0571,0.0573,0.0584,0.0623,0.0688,0.0728,0.0861,0.0903,0.0942,0.101,0.1096,0.1096,0.115,0.1041,0.1042,0.1043,0.1043,0.1044,0.1044,0.0574,0.0588,0.0615,0.066,0.0702,0.0801,0.0944,0.105,0.1202,0.123,0.1231,0.1235,0.0935,0.0914,0.1056,0.1054,0.1052,0.1051,0.105,0.0564,0.0586,0.0626,0.0665,0.0771,0.0888,0.1028,0.1306,0.1431,0.1544,0.1588,0.1356,0.1352,0.1331,0.1321,0.156,0.156,0.156,0.156,0.0568,0.0577,0.0645,0.071,0.0814,0.093,0.1183,0.142,0.17,0.1827,0.1838,0.1775,0.1751,0.1764,0.1734,0.1727,0.2065,0.2065,0.2066,0.0577,0.0599,0.0647,0.0713,0.0822,0.0982,0.1205,0.1471,0.1893,0.2087,0.1922,0.1901,0.1798,0.1754,0.1753,0.1705,0.1685,0,0]},{"header":{"parameterUnit":"m.s-1","parameterCategory":2,"la1":30.2992,"la2":30.254,"lo1":-89.0895,"lo2":-89.0443,"dy":0.0025,"dx":0.0025,"nx":19,"ny":19,"refTime":"2026-04-03T21:00:00:Z","depth":"0","parameterNumber":3,"parameterNumberName":"V-component_of_CURRENTS"},"data":[0,0,0,-0.0199,-0.0199,-0.0173,-0.0172,-0.0167,-0.0167,0,0,0,0,0,0,0,0,0,0,0,-0.021,-0.021,-0.0199,-0.0199,-0.0173,-0.0172,-0.0167,-0.0167,0,0,0,0,0,0,0,0,0,0,0,-0.021,-0.021,-0.021,-0.0199,-0.0173,-0.0172,-0.0167,-0.0178,0,0,0,0,0,0,0,0,0,0,-0.02,-0.0207,-0.021,-0.021,-0.0199,-0.0173,-0.0172,-0.0178,-0.0178,-0.0188,0,-0.0188,0,-0.018,-0.0168,-0.0168,0,0,0,-0.0193,-0.0208,-0.0202,-0.021,-0.0199,-0.0173,-0.0183,-0.0178,-0.0177,-0.0188,-0.0188,-0.0188,-0.018,-0.0168,-0.0168,-0.0143,-0.0143,0,0,-0.0195,-0.0203,-0.0203,-0.0202,-0.0198,-0.0184,-0.0182,-0.0177,-0.0178,-0.0188,-0.0187,-0.018,-0.0168,-0.0168,-0.0144,-0.0143,0,0,0,-0.0203,-0.0204,-0.0198,-0.0202,-0.0197,-0.0183,-0.0181,-0.0178,-0.0177,-0.0187,-0.018,-0.0168,-0.0168,-0.0144,-0.0144,-0.0095,0,0,0,-0.0203,-0.0209,-0.0198,-0.0203,-0.0197,-0.0183,-0.0183,-0.0177,-0.0176,-0.018,-0.0168,-0.0168,-0.0145,-0.0144,-0.0097,-0.0064,0,0,0,-0.021,-0.0209,-0.0208,-0.0203,-0.0194,-0.0183,-0.0181,-0.0176,-0.0172,-0.0168,-0.0168,-0.0145,-0.0144,-0.0099,-0.0068,-0.0024,0,0,0,-0.0216,-0.0209,-0.0209,-0.0196,-0.0194,-0.0163,-0.018,-0.0163,-0.0156,-0.0168,-0.0144,-0.0144,-0.01,-0.007,-0.0026,0.0041,0.0059,0,0,-0.0207,-0.0208,-0.0198,-0.0197,-0.0162,-0.0166,-0.0122,-0.0128,-0.0147,-0.0149,-0.0148,-0.0097,-0.0068,-0.0024,0.009,0.0106,0,0,0,-0.0195,-0.0185,-0.0174,-0.0156,-0.0139,-0.0102,-0.0107,-0.0101,-0.0094,-0.0141,-0.0093,-0.0076,-0.005,-0.0015,-0.0002,-0.0058,-0.014,-0.014,-0.014,-0.0179,-0.0166,-0.0136,-0.0112,-0.0091,-0.006,-0.003,-0.0025,-0.006,-0.0048,-0.0035,0.0036,0.0074,0.0085,0.0026,-0.0039,-0.0039,-0.0039,-0.0039,-0.0142,-0.0116,-0.0097,-0.0063,-0.0031,0.0002,0.0041,0.0035,0.0069,0.0022,0.0045,0.0037,0.0102,0.0034,-0.0035,-0.0036,-0.0036,-0.0037,-0.0037,-0.0119,-0.0102,-0.0089,-0.0036,0.0018,0.0052,0.0138,0.0137,0.0119,0.0145,0.0175,0.0175,0.0114,0.0148,0.0149,0.0149,0.0149,0.015,0.015,-0.0098,-0.0082,-0.004,0.0007,0.0051,0.0128,0.0196,0.024,0.0265,0.0248,0.0248,0.0141,0.0093,0.0085,0.0155,0.0154,0.0154,0.0153,0.0153,-0.0051,-0.0056,0.0011,0.0054,0.0168,0.0288,0.0331,0.0436,0.0447,0.0475,0.0308,0.0306,0.0301,0.029,0.0287,0.0405,0.0405,0.0405,0.0405,-0.0021,-0.0018,0.0077,0.0161,0.0276,0.0374,0.0572,0.0639,0.0545,0.047,0.0378,0.0334,0.0326,0.0318,0.0307,0.0301,0.042,0.042,0.042,0.0024,0.0044,0.0124,0.0198,0.0326,0.0488,0.0698,0.0845,0.0642,0.041,0.0288,0.0287,0.0206,0.0198,0.0168,0.0157,0.0141,0,0]}],[{"header":{"parameterUnit":"m.s-1","parameterCategory":2,"la1":30.2992,"la2":30.254,"lo1":-89.0895,"lo2":-89.0443,"dy":0.0025,"dx":0.0025,"nx":19,"ny":19,"refTime":"2026-04-03T21:00:00:Z","depth":"2","parameterNumber":2,"parameterNumberName":"U-component_of_CURRENTS"},"data":[0,0,0,0.0616,0.0615,0.054,0.0539,0.0508,0.0508,0,0,0,0,0,0,0,0,0,0,0,0.064,0.064,0.0616,0.0615,0.054,0.0539,0.0508,0.0508,0,0,0,0,0,0,0,0,0,0,0,0.064,0.064,0.0639,0.0615,0.054,0.0539,0.0508,0.0545,0,0,0,0,0,0,0,0,0,0,0.0609,0.0631,0.064,0.0639,0.0615,0.054,0.0539,0.0546,0.0543,0.0565,0,0.0558,0,0.0542,0.0509,0.0509,0,0,0,0.0601,0.0633,0.0612,0.0639,0.0614,0.054,0.057,0.0544,0.054,0.0561,0.0558,0.0556,0.0541,0.0509,0.0509,0.0586,0.0587,0,0,0.0605,0.0627,0.0615,0.061,0.0603,0.0572,0.0568,0.0541,0.0543,0.0557,0.0555,0.0541,0.0509,0.0509,0.0586,0.0587,0,0,0,0.0627,0.063,0.0607,0.0612,0.0598,0.057,0.0565,0.0544,0.0536,0.0554,0.054,0.0509,0.0509,0.0585,0.0586,0.067,0,0,0,0.0628,0.0643,0.0609,0.0621,0.0599,0.0563,0.0569,0.0537,0.0534,0.0541,0.0509,0.0509,0.0584,0.0585,0.0665,0.072,0,0,0,0.0642,0.0645,0.0638,0.0623,0.0596,0.0563,0.0552,0.0536,0.0527,0.0509,0.0509,0.0583,0.0585,0.0662,0.0713,0.0819,0,0,0,0.0663,0.0658,0.0638,0.0632,0.0597,0.058,0.0552,0.0536,0.0523,0.0509,0.0584,0.0586,0.0661,0.0709,0.0814,0.0934,0.0968,0,0,0.0667,0.0659,0.0655,0.0636,0.0633,0.0589,0.061,0.0579,0.0564,0.0593,0.0594,0.0667,0.0712,0.0818,0.104,0.1071,0,0,0,0.0663,0.0661,0.0655,0.065,0.0634,0.0653,0.0613,0.0626,0.0656,0.0567,0.0681,0.0708,0.0772,0.0833,0.0858,0.0595,0.0594,0.0594,0.0594,0.0688,0.068,0.0687,0.0682,0.069,0.0698,0.0732,0.0751,0.0706,0.0749,0.0785,0.0937,0.1003,0.1023,0.0786,0.0787,0.0787,0.0787,0.0788,0.0702,0.0703,0.0725,0.0726,0.0762,0.0787,0.0857,0.086,0.0963,0.0886,0.0943,0.093,0.1055,0.0794,0.0793,0.0792,0.0791,0.0791,0.0791,0.0709,0.0712,0.072,0.0758,0.0817,0.0852,0.0981,0.1019,0.1057,0.1124,0.1203,0.1202,0.1006,0.1153,0.1154,0.1155,0.1155,0.1156,0.1156,0.0709,0.0724,0.0746,0.0788,0.0826,0.0919,0.1057,0.1164,0.1307,0.1331,0.1332,0.1062,0.105,0.1029,0.1167,0.1165,0.1164,0.1163,0.1162,0.0701,0.0719,0.0756,0.0789,0.0889,0.1003,0.1139,0.141,0.1532,0.1641,0.1465,0.1453,0.145,0.143,0.1419,0.165,0.165,0.165,0.1651,0.0702,0.071,0.0771,0.0831,0.0933,0.1045,0.1282,0.1469,0.1628,0.1656,0.1654,0.1564,0.1547,0.154,0.1517,0.1504,0.1758,0.1757,0.1757,0.0709,0.0729,0.0771,0.0833,0.0941,0.1099,0.1292,0.1429,0.1605,0.1747,0.1527,0.1686,0.1547,0.1522,0.1498,0.1467,0.144,0,0]},{"header":{"parameterUnit":"m.s-1","parameterCategory":2,"la1":30.2992,"la2":30.254,"lo1":-89.0895,"lo2":-89.0443,"dy":0.0025,"dx":0.0025,"nx":19,"ny":19,"refTime":"2026-04-03T21:00:00:Z","depth":"2","parameterNumber":3,"parameterNumberName":"V-component_of_CURRENTS"},"data":[0,0,0,-0.0264,-0.0263,-0.0241,-0.0241,-0.0231,-0.0231,0,0,0,0,0,0,0,0,0,0,0,-0.0271,-0.0271,-0.0264,-0.0263,-0.0241,-0.0241,-0.0231,-0.0231,0,0,0,0,0,0,0,0,0,0,0,-0.0271,-0.0271,-0.0272,-0.0263,-0.0241,-0.0241,-0.0231,-0.0241,0,0,0,0,0,0,0,0,0,0,-0.026,-0.0265,-0.0271,-0.0272,-0.0263,-0.0241,-0.0241,-0.0241,-0.024,-0.0249,0,-0.0251,0,-0.0245,-0.0231,-0.0231,0,0,0,-0.0255,-0.0265,-0.0264,-0.0272,-0.0263,-0.0241,-0.0249,-0.0241,-0.024,-0.0248,-0.0251,-0.025,-0.0245,-0.0231,-0.0231,-0.0204,-0.0204,0,0,-0.0256,-0.0262,-0.0264,-0.0263,-0.0265,-0.025,-0.0248,-0.024,-0.024,-0.0251,-0.025,-0.0245,-0.0232,-0.0232,-0.0204,-0.0204,0,0,0,-0.0266,-0.0263,-0.0261,-0.0264,-0.0261,-0.0249,-0.0248,-0.024,-0.0241,-0.025,-0.0245,-0.0232,-0.0232,-0.0205,-0.0204,-0.0155,0,0,0,-0.0266,-0.0269,-0.0261,-0.0264,-0.0261,-0.0247,-0.0248,-0.0241,-0.024,-0.0245,-0.0232,-0.0232,-0.0205,-0.0205,-0.0158,-0.0125,0,0,0,-0.0271,-0.0269,-0.027,-0.0264,-0.0259,-0.0247,-0.0247,-0.0241,-0.0238,-0.0231,-0.0232,-0.0205,-0.0205,-0.016,-0.0128,-0.0083,0,0,0,-0.0273,-0.0271,-0.027,-0.0261,-0.0259,-0.0231,-0.0247,-0.0228,-0.022,-0.0232,-0.0205,-0.0204,-0.016,-0.0131,-0.0086,-0.003,-0.0013,0,0,-0.0269,-0.027,-0.0263,-0.0262,-0.0232,-0.0233,-0.0189,-0.0192,-0.021,-0.0209,-0.0208,-0.0157,-0.0129,-0.0084,0.0019,0.0034,0,0,0,-0.0261,-0.0252,-0.0243,-0.0227,-0.0212,-0.0172,-0.0174,-0.0167,-0.0156,-0.0204,-0.0153,-0.0137,-0.011,-0.0082,-0.007,-0.02,-0.02,-0.02,-0.0201,-0.0246,-0.0235,-0.0207,-0.0185,-0.0164,-0.013,-0.0098,-0.0089,-0.0123,-0.0109,-0.0095,-0.0023,0.0008,0.0017,-0.0099,-0.0099,-0.0098,-0.0098,-0.0098,-0.0214,-0.0189,-0.0169,-0.0139,-0.0103,-0.0068,-0.0025,-0.0029,0.0008,-0.0038,-0.0015,-0.0029,0.0034,-0.0094,-0.0095,-0.0095,-0.0096,-0.0096,-0.0096,-0.0191,-0.0176,-0.0162,-0.0109,-0.0052,-0.0015,0.0073,0.0075,0.0059,0.0086,0.0109,0.0109,0.0015,0.009,0.0091,0.0091,0.0091,0.0092,0.0092,-0.017,-0.0154,-0.0111,-0.0064,-0.0019,0.0061,0.0132,0.0177,0.0201,0.0181,0.0181,0.0041,0.0035,0.0026,0.0097,0.0096,0.0096,0.0095,0.0095,-0.0125,-0.0128,-0.006,-0.0016,0.0099,0.0216,0.0264,0.0366,0.0379,0.0403,0.024,0.0234,0.0228,0.0218,0.0214,0.033,0.033,0.033,0.033,-0.0094,-0.0091,0.0007,0.0092,0.0206,0.03,0.0475,0.0502,0.0453,0.0378,0.0376,0.0335,0.0326,0.0321,0.0308,0.0304,0.0443,0.0443,0.0443,-0.0048,-0.0027,0.0056,0.013,0.0257,0.0409,0.0573,0.0602,0.0487,0.0443,0.0348,0.0346,0.0278,0.0266,0.0248,0.0232,0.022,0,0]}],[{"header":{"parameterUnit":"m.s-1","parameterCategory":2,"la1":30.2992,"la2":30.254,"lo1":-89.0895,"lo2":-89.0443,"dy":0.0025,"dx":0.0025,"nx":19,"ny":19,"refTime":"2026-04-03T21:00:00:Z","depth":"4","parameterNumber":2,"parameterNumberName":"U-component_of_CURRENTS"},"data":[0,0,0,0.0886,0.0888,0.1035,0.1036,0.1188,0.1189,0,0,0,0,0,0,0,0,0,0,0,0.085,0.0851,0.0886,0.0888,0.1035,0.1036,0.1188,0.1189,0,0,0,0,0,0,0,0,0,0,0,0.085,0.0851,0.0852,0.0888,0.1035,0.1036,0.1188,0.1093,0,0,0,0,0,0,0,0,0,0,0.0957,0.0923,0.0851,0.0852,0.0889,0.1035,0.1036,0.1089,0.1099,0.1102,0,0.112,0,0.1137,0.1196,0.1196,0,0,0,0.0918,0.0915,0.0942,0.0852,0.089,0.1034,0.0977,0.1095,0.1106,0.1114,0.1122,0.1128,0.114,0.1196,0.1197,0.1324,0.1325,0,0,0.091,0.0892,0.0935,0.0949,0.0921,0.0972,0.0981,0.1102,0.1117,0.1123,0.1131,0.1142,0.1197,0.1198,0.1323,0.1324,0,0,0,0.0866,0.0886,0.0912,0.0942,0.0961,0.0976,0.0986,0.1113,0.1117,0.1133,0.1144,0.1197,0.1199,0.1323,0.1324,0.1373,0,0,0,0.0863,0.0858,0.0908,0.0901,0.0958,0.1043,0.0994,0.111,0.1124,0.1143,0.1198,0.12,0.1322,0.1323,0.137,0.1355,0,0,0,0.0845,0.0856,0.0869,0.0899,0.0946,0.1041,0.1056,0.1114,0.1128,0.1196,0.12,0.1321,0.1323,0.1367,0.1352,0.1361,0,0,0,0.0828,0.0857,0.0869,0.0908,0.0945,0.1015,0.1056,0.1145,0.1206,0.1198,0.1322,0.1324,0.1367,0.135,0.1359,0.12,0,0,0,0.0853,0.086,0.0882,0.0895,0.0948,0.0998,0.1087,0.1196,0.1229,0.1283,0.1287,0.1371,0.1352,0.136,0.1294,0,0,0,0,0.0883,0.0901,0.092,0.0955,0.0997,0.1066,0.1161,0.1216,0.1333,0.1266,0.1389,0.1375,0.1379,0.1283,0.1331,0.1331,0.1331,0.1331,0.1331,0.089,0.0914,0.0956,0.1,0.1046,0.1135,0.1205,0.1295,0.1346,0.142,0.1431,0.1486,0.1391,0.1466,0.1467,0.1467,0.1467,0.1467,0.1467,0.0916,0.0934,0.0982,0.1036,0.1089,0.117,0.1279,0.1345,0.146,0.1491,0.1494,0.1361,0.1473,0.1472,0.1471,0.147,0.147,0.1469,0.1469,0.09,0.0914,0.0961,0.1034,0.1115,0.1207,0.1278,0.1385,0.1477,0.1511,0.1422,0.1505,0.1481,0.1546,0.1546,0.1546,0.1546,0.1546,0.1546,0.0856,0.0903,0.0947,0.1035,0.1088,0.1169,0.1302,0.135,0.1455,0.1434,0.1541,0.1511,0.1509,0.1485,0.1546,0.1546,0.1546,0.1546,0.1546,0.0834,0.0856,0.0914,0.0961,0.1059,0.1096,0.1222,0.1275,0.1322,0.1316,0.1379,0.1387,0.1341,0.1342,0.1311,0.1322,0.132,0.1318,0,0.0805,0.0823,0.0888,0.0935,0.0972,0.1046,0.1059,0.1124,0.1209,0.1185,0.1322,0.1392,0.1397,0.1344,0.1342,0.1303,0,0,0,0.0791,0.0814,0.0846,0.0901,0.0933,0.0971,0.1056,0.1056,0.1196,0.1178,0.1271,0.1284,0.1418,0.1547,0.1495,0.1492,0.145,0,0]},{"header":{"parameterUnit":"m.s-1","parameterCategory":2,"la1":30.2992,"la2":30.254,"lo1":-89.0895,"lo2":-89.0443,"dy":0.0025,"dx":0.0025,"nx":19,"ny":19,"refTime":"2026-04-03T21:00:00:Z","depth":"4","parameterNumber":3,"parameterNumberName":"V-component_of_CURRENTS"},"data":[0,0,0,-0.0199,-0.02,-0.0298,-0.0298,-0.0424,-0.0425,0,0,0,0,0,0,0,0,0,0,0,-0.0171,-0.0171,-0.0199,-0.0201,-0.0298,-0.0298,-0.0424,-0.0425,0,0,0,0,0,0,0,0,0,0,0,-0.0171,-0.0171,-0.0172,-0.0201,-0.0297,-0.0298,-0.0424,-0.0355,0,0,0,0,0,0,0,0,0,0,-0.0263,-0.0232,-0.0171,-0.0172,-0.0201,-0.0297,-0.0298,-0.0352,-0.036,-0.0374,0,-0.038,0,-0.0393,-0.0432,-0.0432,0,0,0,-0.0222,-0.0226,-0.0244,-0.0172,-0.0202,-0.0297,-0.026,-0.0357,-0.0365,-0.0384,-0.0382,-0.0386,-0.0396,-0.0432,-0.0433,-0.05,-0.05,0,0,-0.0217,-0.0201,-0.0238,-0.0248,-0.0215,-0.0257,-0.0263,-0.0362,-0.037,-0.0382,-0.0389,-0.0398,-0.0433,-0.0434,-0.05,-0.05,0,0,0,-0.0187,-0.0197,-0.0213,-0.0243,-0.0254,-0.0259,-0.0266,-0.0366,-0.0369,-0.0391,-0.0399,-0.0433,-0.0435,-0.05,-0.05,-0.0485,0,0,0,-0.0185,-0.0178,-0.0211,-0.0204,-0.0252,-0.0311,-0.0268,-0.0363,-0.0374,-0.0398,-0.0433,-0.0436,-0.05,-0.05,-0.0485,-0.0423,0,0,0,-0.0169,-0.0177,-0.0182,-0.0202,-0.0233,-0.031,-0.032,-0.0366,-0.0378,-0.0432,-0.0436,-0.05,-0.05,-0.0486,-0.0425,-0.0368,0,0,0,-0.0158,-0.0178,-0.0182,-0.0203,-0.0232,-0.0265,-0.032,-0.0377,-0.0422,-0.0434,-0.05,-0.05,-0.0486,-0.0427,-0.037,-0.0304,0,0,0,-0.0179,-0.018,-0.0191,-0.0196,-0.0214,-0.0254,-0.0288,-0.0382,-0.0426,-0.0471,-0.0473,-0.0485,-0.0426,-0.0369,-0.0307,0,0,0,0,-0.0195,-0.02,-0.0207,-0.0215,-0.0234,-0.0253,-0.0332,-0.0367,-0.0446,-0.0448,-0.049,-0.0451,-0.0416,-0.0386,-0.05,-0.05,-0.05,-0.05,-0.05,-0.0203,-0.0204,-0.0213,-0.0218,-0.0232,-0.0268,-0.029,-0.0348,-0.0421,-0.0457,-0.0446,-0.0393,-0.0365,-0.0483,-0.0483,-0.0482,-0.0482,-0.0482,-0.0482,-0.0213,-0.021,-0.0206,-0.022,-0.0216,-0.0241,-0.0273,-0.0321,-0.0347,-0.0424,-0.0393,-0.0381,-0.0481,-0.0481,-0.0481,-0.0482,-0.0482,-0.0482,-0.0482,-0.0205,-0.0203,-0.0211,-0.0207,-0.0204,-0.0225,-0.0192,-0.0242,-0.0297,-0.0281,-0.025,-0.035,-0.0341,-0.0293,-0.0292,-0.0292,-0.0291,-0.0291,-0.0291,-0.0189,-0.0195,-0.0186,-0.0189,-0.018,-0.016,-0.0147,-0.0129,-0.0175,-0.0173,-0.0273,-0.0327,-0.0333,-0.0328,-0.0283,-0.0284,-0.0285,-0.0286,-0.0287,-0.0174,-0.0174,-0.0155,-0.0143,-0.0102,-0.0077,-0.0065,-0.0006,0.0031,0.0045,-0.0108,-0.0119,-0.0096,-0.0107,-0.0094,0.0023,0.0024,0.0025,0,-0.0151,-0.0154,-0.0111,-0.0072,-0.0017,-0.0016,0.0075,0.01,0.007,0.0062,0.0006,-0.017,-0.0178,-0.016,-0.0167,-0.0154,0,0,0,-0.0124,-0.0116,-0.0073,-0.0042,0.002,0.0083,0.0105,0.0131,0.0061,0.0134,0.0053,0.0046,-0.0145,-0.026,-0.025,-0.0258,-0.0247,0,0]}]]